IBB267 GCFV-GCLP

Flight info

Callsign IBB267
Flight time 0h 25m
Altitude 16000
Route LORPO
Aircraft E195/M-SDFGRY/LB1

Departure

Time 2026-04-28 16:59
Airport Fuerteventura Airport (GCFV)

Arrival

Time 2026-04-28 17:24
Airport Gran Canaria Airport (GCLP)
Time Latitude Longitude Altitude Speed Heading
2026-04-28 16:44 28.45534 -13.86654 87 ft 0 kts 270°
2026-04-28 16:55 28.45534 -13.86655 87 ft 2 kts 270°
2026-04-28 16:55 28.45515 -13.86719 90 ft 15 kts 220°
2026-04-28 16:56 28.45385 -13.86698 88 ft 22 kts 124°
2026-04-28 16:56 28.45318 -13.86569 85 ft 20 kts 173°
2026-04-28 16:56 28.45121 -13.86575 82 ft 34 kts 182°
2026-04-28 16:56 28.44883 -13.86582 77 ft 35 kts 183°
2026-04-28 16:57 28.44636 -13.86588 66 ft 38 kts 181°
2026-04-28 16:57 28.44365 -13.86596 68 ft 39 kts 183°
2026-04-28 16:57 28.44097 -13.86606 61 ft 38 kts 183°
2026-04-28 16:57 28.43835 -13.86616 59 ft 37 kts 180°
2026-04-28 16:58 28.43578 -13.86625 55 ft 37 kts 183°
2026-04-28 16:58 28.43344 -13.86628 51 ft 23 kts 169°
2026-04-28 16:58 28.43304 -13.86507 53 ft 16 kts 88°
2026-04-28 16:58 28.43369 -13.86438 54 ft 15 kts
2026-04-28 16:59 28.43558 -13.86432 54 ft 40 kts
2026-04-28 16:59 28.44037 -13.86418 57 ft 104 kts
2026-04-28 16:59 28.44971 -13.86384 137 ft 160 kts 360°
2026-04-28 16:59 28.46183 -13.86293 792 ft 187 kts
2026-04-28 17:00 28.47596 -13.86130 1518 ft 212 kts 13°
2026-04-28 17:00 28.48863 -13.85273 2495 ft 216 kts 36°
2026-04-28 17:00 28.50133 -13.84260 3206 ft 230 kts 24°
2026-04-28 17:00 28.51746 -13.83873 3730 ft 246 kts 351°
2026-04-28 17:01 28.53379 -13.84575 4457 ft 258 kts 324°
2026-04-28 17:01 28.54586 -13.86083 5319 ft 265 kts 299°
2026-04-28 17:01 28.55033 -13.88119 6217 ft 274 kts 268°
2026-04-28 17:01 28.54556 -13.90210 7132 ft 278 kts 243°
2026-04-28 17:02 28.53457 -13.92028 8019 ft 282 kts 234°
2026-04-28 17:02 28.52642 -13.93178 8630 ft 283 kts 233°
2026-04-28 17:02 28.51001 -13.95516 9903 ft 284 kts 235°
2026-04-28 17:02 28.49727 -13.97290 10534 ft 297 kts 232°
2026-04-28 17:03 28.46892 -14.00946 11917 ft 318 kts 231°
2026-04-28 17:03 28.45381 -14.02777 12865 ft 318 kts 229°
2026-04-28 17:03 28.43796 -14.04586 13729 ft 322 kts 226°
2026-04-28 17:04 28.40865 -14.08507 15243 ft 332 kts 249°
2026-04-28 17:04 28.40051 -14.10946 15951 ft 335 kts 251°
2026-04-28 17:05 28.38336 -14.16083 16071 ft 361 kts 251°
2026-04-28 17:05 28.37446 -14.18746 16089 ft 361 kts 251°
2026-04-28 17:05 28.36554 -14.21417 16090 ft 362 kts 250°
2026-04-28 17:06 28.34738 -14.26864 16049 ft 372 kts 250°
2026-04-28 17:06 28.33821 -14.29604 16032 ft 371 kts 250°
2026-04-28 17:06 28.31987 -14.35076 16031 ft 372 kts 250°
2026-04-28 17:07 28.31064 -14.37825 16030 ft 373 kts 251°
2026-04-28 17:07 28.30152 -14.40532 16034 ft 372 kts 250°
2026-04-28 17:07 28.29230 -14.43270 16034 ft 372 kts 250°
2026-04-28 17:07 28.28307 -14.46010 16034 ft 372 kts 250°
2026-04-28 17:08 28.27247 -14.48660 16033 ft 362 kts 240°
2026-04-28 17:08 28.25863 -14.50960 16028 ft 344 kts 238°
2026-04-28 17:08 28.24581 -14.53185 15985 ft 331 kts 239°
2026-04-28 17:08 28.23338 -14.55336 15971 ft 322 kts 238°
2026-04-28 17:09 28.22122 -14.57445 15995 ft 316 kts 239°
2026-04-28 17:09 28.20925 -14.59528 16042 ft 313 kts 239°
2026-04-28 17:09 28.19740 -14.61597 16045 ft 314 kts 238°
2026-04-28 17:09 28.18551 -14.63670 16036 ft 315 kts 239°
2026-04-28 17:10 28.17359 -14.65745 16050 ft 313 kts 239°
2026-04-28 17:10 28.16175 -14.67812 16045 ft 312 kts 239°
2026-04-28 17:10 28.14997 -14.69865 16046 ft 310 kts 239°
2026-04-28 17:10 28.13823 -14.71913 16041 ft 310 kts 239°
2026-04-28 17:11 28.12644 -14.73970 16045 ft 311 kts 239°
2026-04-28 17:11 28.11458 -14.76038 15605 ft 321 kts 239°
2026-04-28 17:11 28.10224 -14.78184 15050 ft 322 kts 239°
2026-04-28 17:11 28.09042 -14.80242 15003 ft 308 kts 239°
2026-04-28 17:12 28.07877 -14.82275 14672 ft 307 kts 238°
2026-04-28 17:12 28.06715 -14.84294 14356 ft 305 kts 239°
2026-04-28 17:12 28.05567 -14.86293 14047 ft 301 kts 239°
2026-04-28 17:12 28.04434 -14.88271 13729 ft 299 kts 239°
2026-04-28 17:13 28.03301 -14.90242 13390 ft 299 kts 239°
2026-04-28 17:13 28.02172 -14.92207 13059 ft 297 kts 239°
2026-04-28 17:13 28.01046 -14.94163 12731 ft 296 kts 238°
2026-04-28 17:13 27.99928 -14.96110 12411 ft 294 kts 239°
2026-04-28 17:14 27.98813 -14.98052 12080 ft 294 kts 239°
2026-04-28 17:14 27.97699 -14.99991 11758 ft 294 kts 239°
2026-04-28 17:14 27.96585 -15.01923 11438 ft 292 kts 239°
2026-04-28 17:14 27.95853 -15.03197 11203 ft 292 kts 239°
2026-04-28 17:15 27.94735 -15.05144 10809 ft 291 kts 239°
2026-04-28 17:15 27.93633 -15.07060 10427 ft 290 kts 239°
2026-04-28 17:15 27.92536 -15.08970 10054 ft 290 kts 239°
2026-04-28 17:15 27.91439 -15.10875 9659 ft 289 kts 239°
2026-04-28 17:16 27.90361 -15.12747 9249 ft 287 kts 240°
2026-04-28 17:16 27.89318 -15.14652 8845 ft 283 kts 246°
2026-04-28 17:16 27.88855 -15.16784 8314 ft 280 kts 270°
2026-04-28 17:16 27.88988 -15.18992 7749 ft 284 kts 276°
2026-04-28 17:17 27.89145 -15.21190 7137 ft 277 kts 274°
2026-04-28 17:17 27.89107 -15.23352 6534 ft 273 kts 266°
2026-04-28 17:17 27.88881 -15.25456 5899 ft 267 kts 264°
2026-04-28 17:17 27.88672 -15.27516 5283 ft 261 kts 265°
2026-04-28 17:18 27.88453 -15.29508 4874 ft 251 kts 264°
2026-04-28 17:18 27.88244 -15.31453 4501 ft 248 kts 265°
2026-04-28 17:18 27.88042 -15.33399 4185 ft 250 kts 265°
2026-04-28 17:18 27.87826 -15.35325 3989 ft 240 kts 264°
2026-04-28 17:19 27.87649 -15.37167 3397 ft 235 kts 268°
2026-04-28 17:19 27.87873 -15.38963 2669 ft 228 kts 289°
2026-04-28 17:19 27.88854 -15.40273 2069 ft 215 kts 337°
2026-04-28 17:19 27.90272 -15.40214 1540 ft 209 kts 23°
2026-04-28 17:20 27.91501 -15.39408 1255 ft 196 kts 26°
2026-04-28 17:20 27.92311 -15.38970 1128 ft 186 kts 22°
2026-04-28 17:20 27.93823 -15.38300 984 ft 169 kts 18°
2026-04-28 17:20 27.94784 -15.37654 970 ft 157 kts 48°
2026-04-28 17:21 27.95072 -15.36490 912 ft 163 kts 92°
2026-04-28 17:21 27.94434 -15.35436 740 ft 168 kts 153°
2026-04-28 17:21 27.93335 -15.35289 745 ft 156 kts 188°
2026-04-28 17:22 27.91201 -15.36221 725 ft 165 kts 206°
2026-04-28 17:22 27.90194 -15.36789 630 ft 159 kts 208°
2026-04-28 17:22 27.89330 -15.37535 625 ft 159 kts 235°
2026-04-28 17:23 27.89265 -15.39778 570 ft 143 kts 329°
2026-04-28 17:23 27.90110 -15.40002 481 ft 123 kts 12°
2026-04-28 17:23 27.90904 -15.39690 387 ft 121 kts 26°
2026-04-28 17:23 27.91705 -15.39313 199 ft 128 kts 20°
2026-04-28 17:24 27.92531 -15.38951 68 ft 120 kts 20°
2026-04-28 17:24 27.93166 -15.38672 59 ft 75 kts 22°
2026-04-28 17:24 27.93614 -15.38468 60 ft 64 kts 19°
2026-04-28 17:24 27.93981 -15.38453 68 ft 32 kts 346°
2026-04-28 17:25 27.94068 -15.38604 71 ft 19 kts 254°
2026-04-28 17:25 27.93976 -15.38667 82 ft 5 kts 200°
2026-04-28 17:25 27.93961 -15.38689 85 ft 2 kts 268°
2026-04-28 17:26 27.93965 -15.38706 82 ft 4 kts 289°
2026-04-28 17:26 27.93975 -15.38733 84 ft 4 kts 290°
2026-04-28 17:26 27.93982 -15.38755 83 ft 1 kts 291°
2026-04-28 17:26 27.93985 -15.38763 87 ft 0 kts 291°